Location: Northern Prairie Star Party
(53.2167°N, 112.5333°W)
Time: 07:40:26
(UTC-06:00)

Amateur Radio Satellites - All Passes

Search period start: 27 April 2015 07:10
Search period end: 28 April 2015 07:10
Location: Northern Prairie Star Party, 53.2167°N, 112.5333°W

Satellite Date Start Highest point End Downlink Frequencies (MHz)
Time Altitude Azimuth
AUBIESAT-1 27 Apr 07:13:23 07:17:55 40° 257° (WSW) 07:22:23 437.475
Cosmos 2499 27 Apr 07:23:46 07:31:11 44° 272° (W) 07:38:02 435.465 / 435.565
BEESAT 3 27 Apr 07:27:24 07:30:08 17° 356° (N) 07:32:50 437.485
BEESAT 2 27 Apr 07:30:53 07:33:39 17° 355° (N) 07:36:25 435.950
Cosmos 2491 27 Apr 07:34:21 07:39:10 16° 37° (NE) 07:44:18 435.465 / 435.565
AO-7 27 Apr 07:42:42 07:50:23 43° 308° (NW) 07:58:00 29.400- 29.500
PRISM 27 Apr 07:43:04 07:47:05 45° 260° (W) 07:51:05 437.425
HORYU 2 27 Apr 07:44:01 07:44:49 10° 312° (NW) 07:45:26 437.375
CUBESAT XI-V 27 Apr 07:54:58 07:59:01 29° 267° (W) 08:03:01 437.345
JAS-2 27 Apr 07:56:52 08:01:46 22° 312° (NW) 08:06:10 435.910
M-CUBED/EXP-1 PRIME 27 Apr 08:09:56 08:12:32 14° 270° (W) 08:14:57 437.505
PCSat 27 Apr 08:27:38 08:32:03 27° 113° (ESE) 08:36:37 145.827
CUTE-I 27 Apr 08:31:38 08:36:57 73° 290° (WNW) 08:42:16 437.470
Cubesat XI-IV 27 Apr 08:41:51 08:47:07 62° 292° (WNW) 08:52:22 437.490
O/OREOS (USA 219) 27 Apr 08:42:23 08:46:46 50° 247° (WSW) 08:51:05 437.305
AIST 2 27 Apr 08:42:24 08:45:20 17° 1° (N) 08:48:14 435.215
STRAND 1 27 Apr 08:43:31 08:47:39 24° 270° (W) 08:51:42 437.568
BEESAT 3 27 Apr 09:06:12 09:09:27 22° 19° (NNE) 09:12:42 437.485
BEESAT 2 27 Apr 09:09:52 09:13:06 21° 18° (NNE) 09:16:20 435.950
GOMX 1 27 Apr 09:12:46 09:16:59 26° 91° (E) 09:21:28 467.674
SEEDS 27 Apr 09:13:59 09:16:04 14° 85° (E) 09:18:19 437.485
ANTELSAT 27 Apr 09:16:15 09:18:33 14° 52° (NE) 09:21:00 437.575/2403.000
CANX-2 27 Apr 09:24:36 09:27:54 22° 90° (E) 09:31:15 2200.000
AAUSAT CUBESAT 2 27 Apr 09:26:55 09:28:49 13° 85° (E) 09:30:53 437.432
HO-68 27 Apr 09:30:26 09:36:43 32° 92° (E) 09:43:03 435.675
Cosmos 2491 27 Apr 09:30:33 09:39:00 47° 65° (ENE) 09:47:30 435.465 / 435.565
CUTE 1.7 + AOD 2 27 Apr 09:33:21 09:36:49 24° 91° (E) 09:40:19 437.475
BRITE-PL 27 Apr 09:34:03 09:38:57 51° 99° (E) 09:44:13 437.365/2234.400
AO-7 27 Apr 09:36:09 09:41:12 18° 332° (NNW) 09:46:05 29.400- 29.500
DOVE 4 27 Apr 09:40:35 09:45:03 31° 93° (E) 09:49:44 437.250
NANOSAT C BR1 27 Apr 09:45:58 09:47:26 12° 53° (NE) 09:49:04 145.865
POPSAT HIP 1 27 Apr 09:49:38 09:51:26 13° 53° (NE) 09:53:22 437.405
CUBEBUG 2 27 Apr 09:59:51 10:02:27 15° 84° (E) 10:05:14 437.445
TIGRISAT 27 Apr 10:03:30 10:07:25 29° 62° (ENE) 10:11:29 435.000
BUGSAT 1 27 Apr 10:04:53 10:06:20 12° 54° (NE) 10:07:56 437.445
UNISAT 6 27 Apr 10:08:28 10:12:33 32° 63° (ENE) 10:16:45 437.425
PCSat 27 Apr 10:09:41 10:15:06 71° 313° (NW) 10:20:34 145.827
CINEMA 3 27 Apr 10:11:40 10:16:04 31° 93° (E) 10:20:35 145.822/145.860
CUTE-I 27 Apr 10:12:53 10:16:16 17° 309° (NW) 10:19:32 437.470
DUCHIFAT 1 27 Apr 10:17:26 10:20:30 20° 59° (ENE) 10:23:39 145.980
POLYITAN 1 27 Apr 10:18:34 10:21:45 21° 60° (ENE) 10:25:03 437.675
COMPASS 1 27 Apr 10:19:54 10:23:58 44° 98° (E) 10:27:59 437.405
AIST 2 27 Apr 10:21:32 10:25:11 26° 24° (NNE) 10:28:49 435.215
UWE-3 27 Apr 10:21:42 10:24:58 19° 87° (E) 10:28:20 435.000/436.395/437.385
Cubesat XI-IV 27 Apr 10:23:23 10:26:20 15° 312° (NW) 10:29:07 437.490
DELFI C3 27 Apr 10:25:08 10:27:53 18° 89° (E) 10:30:43 145.870
FUNcube-1 27 Apr 10:26:37 10:29:29 17° 86° (E) 10:32:29 145.935
QB50P1 27 Apr 10:35:29 10:39:05 28° 63° (ENE) 10:42:46 145.935-145.965
YUBILEINY 27 Apr 10:43:49 10:51:41 39° 85° (E) 10:59:40 435.215
BEESAT 3 27 Apr 10:44:03 10:48:10 64° 41° (NE) 10:52:15 437.485
Oscar 11 27 Apr 10:47:07 10:51:10 37° 96° (E) 10:55:13 145.826/435.025
BEESAT 2 27 Apr 10:47:50 10:51:58 60° 41° (NE) 10:56:03 435.950
SEEDS 27 Apr 10:48:16 10:52:34 85° 286° (WNW) 10:56:48 437.485
ANTELSAT 27 Apr 10:49:58 10:54:33 69° 72° (ENE) 10:59:15 437.575/2403.000
GOMX 1 27 Apr 10:50:28 10:55:28 61° 290° (WNW) 11:00:44 467.674
ZACube-1 27 Apr 10:52:06 10:56:03 27° 92° (E) 10:59:59 437.345
CANX-2 27 Apr 10:59:57 11:04:11 53° 290° (WNW) 11:08:20 2200.000
AAUSAT CUBESAT 2 27 Apr 11:00:54 11:05:08 87° 286° (WNW) 11:09:19 437.432
QB50P2 27 Apr 11:01:42 11:05:46 48° 68° (ENE) 11:09:54 145.880/145.840
VELOX 1 27 Apr 11:04:21 11:05:32 11° 83° (E) 11:06:58 145.980
50 SAT 27 Apr 11:04:45 11:05:50 11° 84° (E) 11:07:07 437.505
CUTE 1.7 + AOD 2 27 Apr 11:08:51 11:13:00 48° 291° (WNW) 11:17:07 437.475
BRITE-PL 27 Apr 11:12:56 11:17:20 31° 297° (WNW) 11:21:58 437.365/2234.400
HO-68 27 Apr 11:17:54 11:25:05 70° 294° (WNW) 11:32:11 435.675
DOVE 4 27 Apr 11:18:07 11:23:01 50° 292° (WNW) 11:28:05 437.250
NANOSAT C BR1 27 Apr 11:18:22 11:22:33 66° 72° (ENE) 11:26:47 145.865
AISAT 27 Apr 11:21:43 11:24:33 17° 88° (E) 11:27:31 437.250
POPSAT HIP 1 27 Apr 11:22:25 11:26:37 72° 72° (ENE) 11:30:53 437.405
DX 1 27 Apr 11:24:00 11:27:51 30° 95° (E) 11:31:45 434.975-435.025
AIST 1 27 Apr 11:25:56 11:29:44 30° 68° (ENE) 11:33:34
SO-50 27 Apr 11:27:20 11:30:20 17° 113° (ESE) 11:33:31 436.795
Cosmos 2491 27 Apr 11:27:37 11:36:10 55° 270° (W) 11:44:37 435.465 / 435.565
AO-7 27 Apr 11:28:03 11:30:40 12° 1° (N) 11:33:19 29.400- 29.500
CUBEBUG 2 27 Apr 11:35:06 11:39:55 87° 100° (E) 11:44:44 437.445
BUGSAT 1 27 Apr 11:37:08 11:41:09 72° 73° (ENE) 11:45:12 437.445
TIGRISAT 27 Apr 11:39:34 11:44:01 47° 262° (W) 11:48:33 435.000
UNISAT 6 27 Apr 11:44:52 11:49:15 42° 263° (W) 11:53:43 437.425
CINEMA 3 27 Apr 11:48:41 11:53:27 47° 292° (WNW) 11:58:16 145.822/145.860
DUCHIFAT 1 27 Apr 11:51:47 11:55:57 62° 258° (WSW) 12:00:11 145.980
POLYITAN 1 27 Apr 11:53:09 11:57:21 59° 259° (W) 12:01:36 437.675
PCSat 27 Apr 11:54:53 11:59:27 26° 337° (NNW) 12:03:58 145.827
COMPASS 1 27 Apr 11:55:55 11:59:29 26° 297° (WNW) 12:02:59 437.405
UWE-3 27 Apr 11:57:20 12:02:03 73° 287° (WNW) 12:06:44 435.000/436.395/437.385
DELFI C3 27 Apr 11:59:26 12:03:27 59° 288° (WNW) 12:07:24 145.870
AIST 2 27 Apr 12:00:00 12:04:19 88° 45° (NE) 12:08:33 435.215
FUNcube-1 27 Apr 12:01:48 12:06:27 80° 286° (WNW) 12:11:02 145.935
UKube-1 27 Apr 12:04:09 12:08:29 65° 102° (ESE) 12:12:48 .
ESTCUBE 1 27 Apr 12:06:43 12:10:24 25° 92° (E) 12:14:09 437.505/2401.250
HUMSAT D 27 Apr 12:07:40 12:12:01 66° 101° (ESE) 12:16:21 437.325/437.525
Cosmos 2504 27 Apr 12:10:02 12:14:39 16° 71° (ENE) 12:19:37 435.465 / 435.565
QB50P1 27 Apr 12:10:50 12:14:51 41° 262° (W) 12:18:54 145.935-145.965
BEESAT 3 27 Apr 12:22:35 12:25:53 23° 242° (WSW) 12:29:05 437.485
Oscar 11 27 Apr 12:23:24 12:27:19 32° 295° (WNW) 12:31:10 145.826/435.025
SEEDS 27 Apr 12:25:23 12:27:46 14° 305° (NW) 12:30:01 437.485
BEESAT 2 27 Apr 12:26:23 12:29:49 25° 241° (WSW) 12:33:10 435.950
ZACube-1 27 Apr 12:28:10 12:32:37 48° 292° (WNW) 12:37:02 437.345
ANTELSAT 27 Apr 12:28:30 12:31:52 19° 272° (W) 12:35:12 437.575/2403.000
GOMX 1 27 Apr 12:30:14 12:32:48 14° 308° (NW) 12:35:15 467.674
50 SAT 27 Apr 12:37:18 12:41:24 84° 104° (ESE) 12:45:26 437.505
AAUSAT CUBESAT 2 27 Apr 12:37:49 12:40:10 14° 304° (NW) 12:42:24 437.432
CUBEBUG 1 27 Apr 12:38:19 12:42:28 41° 98° (E) 12:46:37 437.445
QB50P2 27 Apr 12:38:27 12:41:56 23° 268° (W) 12:45:22 145.880/145.840
VELOX 1 27 Apr 12:38:32 12:43:00 75° 103° (ESE) 12:47:27 145.980
YUBILEINY 27 Apr 12:39:25 12:48:12 64° 288° (WNW) 12:56:58 435.215
Gurwin Techsat 1B 27 Apr 12:41:09 12:42:55 12° 45° (NE) 12:44:54 435.225
ISS 27 Apr 12:45:41 12:48:08 20° 148° (SSE) 12:50:37 145.825
NANOSAT C BR1 27 Apr 12:56:00 12:58:53 17° 272° (W) 13:01:41 145.865
Oscar 19 27 Apr 12:56:38 13:01:15 35° 62° (ENE) 13:05:58 437.125/150
AISAT 27 Apr 12:57:14 13:01:43 74° 288° (WNW) 13:06:10 437.250
DOVE 4 27 Apr 12:58:00 12:59:50 12° 310° (NW) 13:01:30 437.250
DX 1 27 Apr 13:00:07 13:04:13 39° 294° (WNW) 13:08:16 434.975-435.025
POPSAT HIP 1 27 Apr 13:00:22 13:03:04 16° 273° (W) 13:05:39 437.405
AIST 1 27 Apr 13:03:33 13:07:27 34° 268° (W) 13:11:19
SO-50 27 Apr 13:05:29 13:10:14 84° 131° (SE) 13:15:09 436.795
HO-68 27 Apr 13:06:27 13:11:46 22° 316° (NW) 13:16:54 435.675
CUBEBUG 2 27 Apr 13:12:46 13:16:03 18° 304° (WNW) 13:19:15 437.445
TISAT 1 27 Apr 13:13:27 13:16:53 24° 92° (E) 13:20:23 437.305
BUGSAT 1 27 Apr 13:14:49 13:17:11 15° 273° (W) 13:19:26 437.445
AO-7 27 Apr 13:15:09 13:20:12 18° 29° (NNE) 13:25:26 29.400- 29.500
Cosmos 2491 27 Apr 13:26:54 13:31:06 14° 293° (WNW) 13:34:49 435.465 / 435.565
CINEMA 3 27 Apr 13:28:21 13:29:38 11° 312° (NW) 13:30:44 145.822/145.860
RS-15 27 Apr 13:35:11 13:42:30 22° 101° (E) 13:50:24 29.354- 29.394
UWE-3 27 Apr 13:35:14 13:37:51 15° 306° (NW) 13:40:19 435.000/436.395/437.385
ITAMSAT 1 27 Apr 13:36:05 13:40:25 28° 59° (ENE) 13:44:50 435.822/435.867
DELFI C3 27 Apr 13:37:29 13:37:48 10° 308° (NW) 13:37:58 145.870
FUNcube-1 27 Apr 13:39:23 13:42:06 15° 306° (NW) 13:44:42 145.935
AIST 2 27 Apr 13:39:35 13:42:22 17° 245° (WSW) 13:45:00 435.215
PCSat 27 Apr 13:40:48 13:44:38 19° 2° (N) 13:48:29 145.827
UKube-1 27 Apr 13:41:02 13:44:16 20° 302° (WNW) 13:47:25 .
ESTCUBE 1 27 Apr 13:43:12 13:47:34 49° 292° (WNW) 13:51:54 437.505/2401.250
HUMSAT D 27 Apr 13:44:10 13:47:24 20° 301° (WNW) 13:50:31 437.325/437.525
SPROUT 27 Apr 13:51:07 13:55:27 65° 102° (ESE) 13:59:45 437.525
Cosmos 2504 27 Apr 13:57:51 14:06:29 60° 92° (E) 14:14:56 435.465 / 435.565
50 SAT 27 Apr 14:13:16 14:15:41 15° 303° (WNW) 14:18:00 437.505
CUBEBUG 1 27 Apr 14:14:55 14:18:44 29° 297° (WNW) 14:22:30 437.445
ITUPSAT 1 27 Apr 14:15:25 14:18:48 19° 88° (E) 14:22:18 437.325
VELOX 1 27 Apr 14:15:57 14:19:07 19° 303° (WNW) 14:22:12 145.980
Gurwin Techsat 1B 27 Apr 14:16:45 14:21:49 48° 66° (ENE) 14:26:56 435.225
ISS 27 Apr 14:20:51 14:24:03 53° 167° (SSE) 14:27:16 145.825
AISAT 27 Apr 14:35:16 14:37:38 14° 307° (NW) 14:39:52 437.250
Oscar 19 27 Apr 14:35:34 14:40:32 45° 262° (W) 14:45:33 437.125/150
YUBILEINY 27 Apr 14:40:55 14:47:16 21° 315° (NW) 14:53:23 435.215
JAS-2 27 Apr 14:44:15 14:50:31 29° 54° (NE) 14:56:34 435.910
BEESAT 27 Apr 14:44:23 14:48:43 33° 95° (E) 14:53:03 436.000
SO-50 27 Apr 14:46:57 14:51:18 32° 336° (NNW) 14:55:44 436.795
SWISSCUBE 27 Apr 14:47:13 14:51:39 38° 97° (E) 14:56:05 437.505
TISAT 1 27 Apr 14:48:48 14:52:55 48° 292° (WNW) 14:57:01 437.305
AO-7 27 Apr 15:03:27 15:11:07 45° 54° (NE) 15:18:53 29.400- 29.500
GONETS M04 27 Apr 15:11:19 15:15:41 15° 69° (ENE) 15:20:31
ITAMSAT 1 27 Apr 15:14:34 15:19:41 58° 258° (WSW) 15:24:49 435.822/435.867
PCSat 27 Apr 15:25:02 15:29:45 29° 27° (NNE) 15:34:30 145.827
SPROUT 27 Apr 15:27:56 15:31:11 20° 301° (WNW) 15:34:20 437.525
HORYU 2 27 Apr 15:32:27 15:36:46 48° 68° (ENE) 15:41:09 437.375
RS-15 27 Apr 15:42:09 15:52:56 71° 125° (SE) 16:04:05 29.354- 29.394
KKS-1 27 Apr 15:43:07 15:46:54 26° 93° (E) 15:50:44 437.445
Cosmos 2504 27 Apr 15:51:54 16:00:20 44° 296° (WNW) 16:08:26 435.465 / 435.565
ITUPSAT 1 27 Apr 15:52:29 15:57:16 70° 289° (WNW) 16:02:00 437.325
ISS 27 Apr 15:57:02 16:00:17 64° 185° (S) 16:03:31 145.825
Gurwin Techsat 1B 27 Apr 15:57:12 16:02:00 33° 266° (W) 16:06:48 435.225
BEESAT 27 Apr 16:22:11 16:26:40 41° 295° (WNW) 16:31:06 436.000
SWISSCUBE 27 Apr 16:25:08 16:29:31 36° 296° (WNW) 16:33:51 437.505
JAS-2 27 Apr 16:27:02 16:34:54 89° 77° (ENE) 16:42:19 435.910
SO-50 27 Apr 16:29:22 16:33:10 22° 360° (N) 16:37:01 436.795
STARS 27 Apr 16:32:20 16:36:39 48° 99° (E) 16:40:59 437.465
CUTE-I 27 Apr 16:43:19 16:46:05 15° 48° (NE) 16:49:01 437.470
CUSAT 1 27 Apr 16:49:58 16:52:54 18° 79° (E) 16:56:33 437.405
Cubesat XI-IV 27 Apr 16:52:58 16:56:14 17° 51° (NE) 16:59:40 437.490
AO-7 27 Apr 16:55:35 17:03:47 61° 256° (WSW) 17:12:01 29.400- 29.500
ITAMSAT 1 27 Apr 17:00:02 17:00:27 10° 280° (W) 17:00:34 435.822/435.867
GONETS M04 27 Apr 17:02:13 17:10:45 59° 92° (E) 17:19:24
PCSat 27 Apr 17:08:25 17:13:54 87° 50° (NE) 17:19:21 145.827
HORYU 2 27 Apr 17:09:51 17:13:40 26° 267° (W) 17:17:26 437.375
KKS-1 27 Apr 17:19:27 17:23:47 47° 292° (WNW) 17:28:05 437.445
ITUPSAT 1 27 Apr 17:31:47 17:34:25 15° 309° (NW) 17:36:53 437.325
ISS 27 Apr 17:33:26 17:36:20 29° 206° (SSW) 17:39:14 145.825
DANDE 27 Apr 17:42:28 17:46:03 34° 89° (E) 17:50:46 436.750
Cosmos 2504 27 Apr 17:51:52 17:56:36 15° 323° (NW) 18:00:55 435.465 / 435.565
RS-15 27 Apr 17:55:03 18:05:54 58° 334° (NNW) 18:17:09 29.354- 29.394
MOZHAYETS 4 27 Apr 18:01:44 18:06:12 48° 99° (E) 18:10:39
STARS 27 Apr 18:09:09 18:12:56 27° 299° (WNW) 18:16:40 437.465
SO-50 27 Apr 18:10:40 18:15:03 31° 23° (NNE) 18:19:30 436.795
Cosmos 2499 27 Apr 18:13:53 18:21:30 36° 84° (E) 18:28:59 435.465 / 435.565
JAS-2 27 Apr 18:14:27 18:20:50 26° 274° (W) 18:26:46 435.910
CUTE-I 27 Apr 18:20:02 18:25:16 62° 69° (ENE) 18:30:33 437.470
HO-68 27 Apr 18:21:58 18:25:58 16° 36° (NE) 18:30:08 435.675
Cubesat XI-IV 27 Apr 18:30:17 18:35:35 73° 71° (ENE) 18:40:56 437.490
CUSAT 1 27 Apr 18:30:26 18:34:40 71° 287° (WNW) 18:40:28 437.405
YUBILEINY 27 Apr 18:50:19 18:51:33 10° 23° (NNE) 18:53:06 435.215
PCSat 27 Apr 18:52:42 18:56:45 21° 251° (WSW) 19:00:39 145.827
AO-7 27 Apr 18:53:52 18:58:39 15° 281° (W) 19:03:00 29.400- 29.500
GONETS M04 27 Apr 18:59:43 19:08:04 44° 297° (WNW) 19:16:24
STRAND 1 27 Apr 19:08:42 19:11:01 13° 83° (E) 19:13:35 437.568
BRITE-PL 27 Apr 19:15:20 19:18:04 17° 55° (NE) 19:21:01 437.365/2234.400
DOVE 4 27 Apr 19:19:09 19:20:05 11° 48° (NE) 19:21:11 437.250
PRISM 27 Apr 19:20:04 19:22:39 16° 89° (E) 19:25:21 437.425
DANDE 27 Apr 19:25:34 19:29:21 33° 300° (WNW) 19:34:15 436.750
MOZHAYETS 4 27 Apr 19:39:20 19:43:15 28° 298° (WNW) 19:47:06
M-CUBED/EXP-1 PRIME 27 Apr 19:43:24 19:47:15 31° 100° (E) 19:50:49 437.505
CUBESAT XI-V 27 Apr 19:44:29 19:48:57 46° 98° (E) 19:53:25 437.345
COMPASS 1 27 Apr 19:44:36 19:46:10 12° 53° (NE) 19:47:53 437.405
PHONESAT 2.4 27 Apr 19:44:45 19:45:47 11° 177° (S) 19:46:51 2401.200-2431.200
CINEMA 3 27 Apr 19:46:35 19:47:39 11° 49° (NE) 19:48:54 145.822/145.860
SO-50 27 Apr 19:51:12 19:56:12 89° 48° (NE) 20:01:10 436.795
CUTE-I 27 Apr 20:01:22 20:05:48 26° 269° (W) 20:10:10 437.470
HO-68 27 Apr 20:05:22 20:12:09 47° 59° (ENE) 20:18:59 435.675
Cosmos 2499 27 Apr 20:05:23 20:14:14 71° 285° (WNW) 20:22:41 435.465 / 435.565
RS-15 27 Apr 20:10:03 20:20:44 47° 6° (N) 20:31:56 29.354- 29.394
SEEDS 27 Apr 20:11:39 20:14:58 23° 61° (ENE) 20:18:21 437.485
Cubesat XI-IV 27 Apr 20:12:13 20:16:19 22° 271° (W) 20:20:19 437.490
Oscar 11 27 Apr 20:15:06 20:16:33 12° 52° (NE) 20:18:09 145.826/435.025
CUSAT 1 27 Apr 20:16:00 20:19:01 15° 317° (NW) 20:22:20 437.405
CANX-2 27 Apr 20:23:19 20:27:12 34° 66° (ENE) 20:31:09 2200.000
AAUSAT CUBESAT 2 27 Apr 20:23:19 20:26:29 21° 61° (ENE) 20:29:45 437.432
AUBIESAT-1 27 Apr 20:23:26 20:27:42 66° 108° (ESE) 20:31:34 437.475
GOMX 1 27 Apr 20:27:28 20:31:34 44° 67° (ENE) 20:35:58 467.674
CUTE 1.7 + AOD 2 27 Apr 20:32:00 20:35:57 37° 66° (ENE) 20:39:58 437.475
YUBILEINY 27 Apr 20:45:05 20:52:27 30° 54° (NE) 20:59:56 435.215
STRAND 1 27 Apr 20:46:06 20:51:14 75° 105° (ESE) 20:56:21 437.568
BRITE-PL 27 Apr 20:51:51 20:56:04 79° 256° (WSW) 21:00:34 437.365/2234.400
DOVE 4 27 Apr 20:52:34 20:56:50 52° 69° (ENE) 21:01:23 437.250
DX 1 27 Apr 20:53:03 20:54:12 11° 50° (NE) 20:55:30 434.975-435.025
PRISM 27 Apr 20:54:30 20:58:37 66° 288° (WNW) 21:02:40 437.425
GONETS M04 27 Apr 21:03:20 21:08:04 15° 326° (NW) 21:12:31
CUBEBUG 2 27 Apr 21:03:53 21:07:31 25° 60° (ENE) 21:11:18 437.445
COMPASS 1 27 Apr 21:16:55 21:21:08 68° 72° (ENE) 21:25:22 437.405
M-CUBED/EXP-1 PRIME 27 Apr 21:18:09 21:22:12 37° 302° (WNW) 21:25:53 437.505
DELFI C3 27 Apr 21:18:27 21:21:51 26° 64° (ENE) 21:25:20 145.870
CINEMA 3 27 Apr 21:19:31 21:23:51 52° 68° (ENE) 21:28:27 145.822/145.860
CUBESAT XI-V 27 Apr 21:22:16 21:26:15 29° 297° (WNW) 21:30:10 437.345
UWE-3 27 Apr 21:24:42 21:28:36 31° 63° (ENE) 21:32:38 435.000/436.395/437.385
FUNcube-1 27 Apr 21:28:08 21:31:51 27° 62° (ENE) 21:35:42 145.935
UKube-1 27 Apr 21:30:25 21:33:32 20° 58° (ENE) 21:36:44 .
HUMSAT D 27 Apr 21:31:37 21:34:21 17° 57° (ENE) 21:37:12 437.325/437.525
SO-50 27 Apr 21:32:34 21:36:13 20° 245° (WSW) 21:39:45 436.795
SEEDS 27 Apr 21:46:16 21:50:29 55° 260° (W) 21:54:44 437.485
Oscar 11 27 Apr 21:47:38 21:51:57 62° 71° (ENE) 21:56:18 145.826/435.025
Cosmos 2504 27 Apr 21:51:50 21:53:47 11° 28° (NNE) 21:56:01 435.465 / 435.565
HO-68 27 Apr 21:52:56 21:59:55 50° 261° (W) 22:06:55 435.675
ZACube-1 27 Apr 21:53:55 21:58:07 44° 67° (ENE) 22:02:27 437.345
50 SAT 27 Apr 21:55:23 21:58:01 17° 58° (ENE) 22:00:44 437.505
AAUSAT CUBESAT 2 27 Apr 21:57:37 22:01:48 58° 259° (W) 22:06:00 437.432
AUBIESAT-1 27 Apr 21:58:49 22:02:03 21° 310° (NW) 22:05:03 437.475
CANX-2 27 Apr 21:59:11 22:03:09 34° 265° (W) 22:07:06 2200.000
Cosmos 2499 27 Apr 22:02:29 22:09:09 23° 311° (NW) 22:15:22 435.465 / 435.565
GOMX 1 27 Apr 22:06:18 22:09:59 26° 269° (W) 22:13:49 467.674
VELOX 1 27 Apr 22:06:57 22:10:22 23° 60° (ENE) 22:13:52 145.980
CUBEBUG 1 27 Apr 22:06:59 22:08:59 13° 53° (NE) 22:11:08 437.445
CUTE 1.7 + AOD 2 27 Apr 22:08:05 22:11:57 31° 266° (W) 22:15:48 437.475
RS-15 27 Apr 22:23:48 22:35:09 72° 37° (NE) 22:47:05 29.354- 29.394
AISAT 27 Apr 22:25:13 22:29:07 32° 63° (ENE) 22:33:04 437.250
DX 1 27 Apr 22:25:23 22:29:38 58° 70° (ENE) 22:33:55 434.975-435.025
STRAND 1 27 Apr 22:26:02 22:30:00 23° 304° (NW) 22:33:51 437.568
DOVE 4 27 Apr 22:31:26 22:35:00 23° 271° (W) 22:38:39 437.250
PRISM 27 Apr 22:31:56 22:33:21 11° 308° (NW) 22:34:37 437.425
BRITE-PL 27 Apr 22:34:22 22:35:38 11° 279° (W) 22:36:41 437.365/2234.400
ANTELSAT 27 Apr 22:38:39 22:39:20 10° 80° (E) 22:40:16 437.575/2403.000
CUBEBUG 2 27 Apr 22:39:31 22:43:55 55° 261° (W) 22:48:29 437.445
Cosmos 2491 27 Apr 22:40:06 22:48:00 41° 85° (E) 22:56:04 435.465 / 435.565
YUBILEINY 27 Apr 22:41:46 22:50:37 88° 260° (W) 22:59:21 435.215
DELFI C3 27 Apr 22:52:58 22:56:52 41° 262° (W) 23:00:46 145.870
COMPASS 1 27 Apr 22:54:27 22:57:18 17° 272° (W) 23:00:05 437.405
CINEMA 3 27 Apr 22:57:43 23:01:25 24° 270° (W) 23:05:11 145.822/145.860
O/OREOS (USA 219) 27 Apr 23:00:21 23:04:48 54° 114° (ESE) 23:09:17 437.305
UWE-3 27 Apr 23:00:47 23:05:01 42° 263° (W) 23:09:23 435.000/436.395/437.385
FUNcube-1 27 Apr 23:03:42 23:07:59 48° 262° (W) 23:12:23 145.935
UKube-1 27 Apr 23:04:59 23:09:18 67° 257° (WSW) 23:13:37 .
HUMSAT D 27 Apr 23:05:19 23:09:36 81° 256° (WSW) 23:13:57 437.325/437.525
ESTCUBE 1 27 Apr 23:12:09 23:16:28 48° 68° (ENE) 23:20:50 437.505/2401.250
SPROUT 27 Apr 23:17:04 23:19:53 18° 57° (ENE) 23:22:49 437.525
TIGRISAT 27 Apr 23:25:14 23:29:10 26° 91° (E) 23:33:07 435.000
Oscar 11 27 Apr 23:25:21 23:28:34 19° 271° (W) 23:31:42 145.826/435.025
50 SAT 27 Apr 23:28:21 23:32:22 71° 257° (WSW) 23:36:27 437.505
UNISAT 6 27 Apr 23:30:35 23:34:41 29° 93° (E) 23:38:48 437.425
ZACube-1 27 Apr 23:30:49 23:34:40 28° 268° (W) 23:38:34 437.345
DUCHIFAT 1 27 Apr 23:31:29 23:33:51 15° 86° (E) 23:36:22 145.980
POLYITAN 1 27 Apr 23:33:21 23:36:00 16° 87° (E) 23:38:47 437.675
CUBEBUG 1 27 Apr 23:40:22 23:44:41 75° 73° (ENE) 23:49:01 437.445
VELOX 1 27 Apr 23:42:18 23:46:38 58° 259° (WSW) 23:51:01 145.980
Cosmos 2504 27 Apr 23:43:26 23:50:40 33° 58° (ENE) 23:57:32 435.465 / 435.565
HO-68 27 Apr 23:47:46 23:49:44 11° 285° (WNW) 23:51:11 435.675
QB50P1 27 Apr 23:49:57 23:53:17 22° 91° (E) 23:56:42 145.935-145.965
AISAT 28 Apr 00:01:32 00:05:40 38° 263° (W) 00:09:48 437.250
DX 1 28 Apr 00:02:58 00:06:16 20° 270° (W) 00:09:30 434.975-435.025
AIST 1 28 Apr 00:04:07 00:06:02 13° 83° (E) 00:08:09
TISAT 1 28 Apr 00:11:27 00:15:20 39° 67° (ENE) 00:19:18 437.305
ANTELSAT 28 Apr 00:12:26 00:17:11 65° 102° (ESE) 00:21:50 437.575/2403.000
QB50P2 28 Apr 00:16:34 00:20:36 38° 97° (E) 00:24:38 145.880/145.840
BEESAT 28 Apr 00:21:42 00:24:25 16° 52° (NE) 00:27:15 436.000
SWISSCUBE 28 Apr 00:24:18 00:27:17 17° 54° (NE) 00:30:24 437.505
NANOSAT C BR1 28 Apr 00:32:50 00:37:02 52° 100° (E) 00:41:15 145.865
Cosmos 2491 28 Apr 00:36:00 00:44:38 61° 289° (WNW) 00:53:22 435.465 / 435.565
RS-15 28 Apr 00:36:30 00:47:23 51° 243° (WSW) 00:58:38 29.354- 29.394
POPSAT HIP 1 28 Apr 00:37:10 00:41:26 57° 101° (E) 00:45:42 437.405
YUBILEINY 28 Apr 00:39:37 00:46:23 25° 283° (WNW) 00:52:51 435.215
O/OREOS (USA 219) 28 Apr 00:40:30 00:44:32 29° 315° (NW) 00:48:30 437.305
HUMSAT D 28 Apr 00:44:35 00:46:11 12° 277° (W) 00:47:35 437.325/437.525
BUGSAT 1 28 Apr 00:48:27 00:52:31 53° 100° (E) 00:56:38 437.445
ESTCUBE 1 28 Apr 00:49:46 00:53:35 26° 268° (W) 00:57:21 437.505/2401.250
SPROUT 28 Apr 00:51:14 00:55:31 76° 256° (WSW) 00:59:51 437.525
TIGRISAT 28 Apr 01:01:36 01:06:12 52° 291° (WNW) 01:10:44 435.000
DUCHIFAT 1 28 Apr 01:05:59 01:10:17 80° 287° (WNW) 01:14:35 145.980
UNISAT 6 28 Apr 01:07:07 01:11:40 46° 293° (WNW) 01:16:07 437.425
POLYITAN 1 28 Apr 01:08:08 01:12:29 74° 287° (WNW) 01:16:48 437.675
GONETS M04 28 Apr 01:08:19 01:12:41 15° 34° (NE) 01:17:23
KKS-1 28 Apr 01:15:17 01:15:39 10° 49° (NE) 01:16:12 437.445
CUBEBUG 1 28 Apr 01:18:53 01:21:38 16° 273° (W) 01:24:15 437.445
QB50P1 28 Apr 01:25:17 01:29:29 53° 291° (WNW) 01:33:40 145.935-145.965
ITUPSAT 1 28 Apr 01:27:55 01:32:27 44° 66° (ENE) 01:37:01 437.325
CUSAT 1 28 Apr 01:35:31 01:38:28 13° 39° (NE) 01:41:55 437.405
Cosmos 2504 28 Apr 01:36:48 01:44:57 72° 264° (W) 01:52:27 435.465 / 435.565
AIST 1 28 Apr 01:38:49 01:43:07 85° 279° (W) 01:47:26
TISAT 1 28 Apr 01:47:36 01:51:15 28° 266° (W) 01:54:54 437.305
ANTELSAT 28 Apr 01:49:51 01:53:35 23° 301° (WNW) 01:57:12 437.575/2403.000
QB50P2 28 Apr 01:52:37 01:56:26 31° 296° (WNW) 02:00:13 145.880/145.840
BEESAT 28 Apr 01:56:48 02:01:34 76° 72° (ENE) 02:06:23 436.000
SWISSCUBE 28 Apr 01:59:45 02:04:33 85° 73° (ENE) 02:09:21 437.505
STARS 28 Apr 02:01:01 02:03:40 16° 55° (NE) 02:06:27 437.465
NANOSAT C BR1 28 Apr 02:09:10 02:12:39 24° 299° (WNW) 02:16:04 145.865
POPSAT HIP 1 28 Apr 02:13:39 02:17:01 22° 300° (WNW) 02:20:19 437.405
BEESAT 3 28 Apr 02:22:14 02:24:24 14° 114° (ESE) 02:26:42 437.485
BUGSAT 1 28 Apr 02:24:28 02:27:45 22° 299° (WNW) 02:30:58 437.445
BEESAT 2 28 Apr 02:27:11 02:29:12 14° 113° (ESE) 02:31:22 435.950
Gurwin Techsat 1B 28 Apr 02:28:40 02:30:13 11° 80° (E) 02:32:02 435.225
DANDE 28 Apr 02:30:53 02:35:49 20° 51° (NE) 02:41:35 436.750
SPROUT 28 Apr 02:31:16 02:32:28 11° 277° (W) 02:33:28 437.525
Cosmos 2491 28 Apr 02:37:44 02:43:53 20° 317° (NW) 02:49:47 435.465 / 435.565
Oscar 19 28 Apr 02:40:28 02:45:24 41° 97° (E) 02:50:20 437.125/150
TIGRISAT 28 Apr 02:40:33 02:42:00 11° 311° (NW) 02:43:16 435.000
DUCHIFAT 1 28 Apr 02:43:12 02:45:29 14° 306° (NW) 02:47:39 145.980
POLYITAN 1 28 Apr 02:45:34 02:47:43 13° 306° (NW) 02:49:44 437.675
KKS-1 28 Apr 02:47:05 02:51:22 50° 68° (ENE) 02:55:44 437.445
RS-15 28 Apr 02:51:53 02:57:14 14° 266° (W) 03:01:44 29.354- 29.394
GONETS M04 28 Apr 03:04:24 03:12:44 43° 63° (ENE) 03:21:06
ITUPSAT 1 28 Apr 03:06:14 03:10:30 31° 266° (W) 03:14:45 437.325
CUSAT 1 28 Apr 03:16:37 03:23:22 39° 63° (ENE) 03:31:02 437.405
AIST 1 28 Apr 03:19:24 03:21:34 13° 303° (WNW) 03:23:36
ITAMSAT 1 28 Apr 03:21:06 03:25:42 32° 94° (E) 03:30:20 435.822/435.867
Cosmos 2504 28 Apr 03:31:46 03:36:55 18° 287° (WNW) 03:41:33 435.465 / 435.565
MOZHAYETS 4 28 Apr 03:34:36 03:37:32 17° 56° (NE) 03:40:35
STARS 28 Apr 03:35:08 03:39:33 90° 79° (ENE) 03:44:01 437.465
BEESAT 28 Apr 03:36:41 03:40:02 18° 272° (W) 03:43:15 436.000
SWISSCUBE 28 Apr 03:40:06 03:43:07 16° 274° (W) 03:46:00 437.505
AIST 2 28 Apr 03:42:23 03:45:48 24° 118° (ESE) 03:49:18 435.215
Cosmos 2499 28 Apr 03:57:09 04:02:37 20° 46° (NE) 04:08:01 435.465 / 435.565
BEESAT 3 28 Apr 03:57:42 04:01:49 83° 134° (SE) 04:05:59 437.485
BEESAT 2 28 Apr 04:02:33 04:06:41 79° 132° (SE) 04:10:53 435.950
Gurwin Techsat 1B 28 Apr 04:06:07 04:11:25 63° 101° (ESE) 04:16:42 435.225
AUBIESAT-1 28 Apr 04:12:10 04:12:43 10° 40° (NE) 04:13:25 437.475
DANDE 28 Apr 04:13:17 04:20:25 63° 71° (ENE) 04:28:50 436.750
Oscar 19 28 Apr 04:19:56 04:24:46 38° 297° (WNW) 04:29:33 437.125/150
KKS-1 28 Apr 04:24:38 04:28:18 24° 268° (W) 04:31:56 437.445
AO-7 28 Apr 04:49:57 04:57:16 34° 93° (E) 05:04:42 29.400- 29.500
HORYU 2 28 Apr 04:53:57 04:58:13 40° 97° (E) 05:02:28 437.375
CUSAT 1 28 Apr 04:59:11 05:06:34 68° 262° (W) 05:14:49 437.405
ITAMSAT 1 28 Apr 05:00:27 05:05:26 49° 294° (WNW) 05:10:25 435.822/435.867
GONETS M04 28 Apr 05:01:24 05:10:05 60° 268° (W) 05:18:39
M-CUBED/EXP-1 PRIME 28 Apr 05:03:06 05:06:52 24° 52° (NE) 05:10:39 437.505
MOZHAYETS 4 28 Apr 05:09:32 05:14:12 89° 264° (W) 05:18:52
STARS 28 Apr 05:14:27 05:16:45 14° 275° (W) 05:18:54 437.465
JAS-2 28 Apr 05:16:09 05:22:24 47° 96° (E) 05:27:57 435.910
CUBESAT XI-V 28 Apr 05:18:46 05:21:37 17° 56° (NE) 05:24:35 437.345
AIST 2 28 Apr 05:19:48 05:24:04 66° 318° (NW) 05:28:22 435.215
BEESAT 3 28 Apr 05:36:44 05:40:18 27° 334° (NNW) 05:43:51 437.485
BEESAT 2 28 Apr 05:41:36 05:45:14 28° 333° (NNW) 05:48:51 435.950
AUBIESAT-1 28 Apr 05:42:02 05:46:29 39° 59° (ENE) 05:50:51 437.475
O/OREOS (USA 219) 28 Apr 05:46:30 05:48:52 14° 30° (NNE) 05:51:18 437.305
Gurwin Techsat 1B 28 Apr 05:46:38 05:51:05 27° 302° (WNW) 05:55:29 435.225
Cosmos 2499 28 Apr 05:49:47 05:57:43 68° 74° (ENE) 06:05:03 435.465 / 435.565
DANDE 28 Apr 05:56:50 06:03:35 40° 269° (W) 06:11:11 436.750
PRISM 28 Apr 06:15:47 06:19:22 29° 63° (ENE) 06:22:59 437.425
STRAND 1 28 Apr 06:29:48 06:34:26 37° 63° (ENE) 06:39:07 437.568
HORYU 2 28 Apr 06:30:47 06:34:48 32° 297° (WNW) 06:38:46 437.375
CUTE-I 28 Apr 06:32:00 06:34:54 15° 84° (E) 06:38:01 437.470
M-CUBED/EXP-1 PRIME 28 Apr 06:36:28 06:41:20 74° 251° (WSW) 06:46:07 437.505
ITAMSAT 1 28 Apr 06:42:00 06:43:54 12° 314° (NW) 06:45:37 435.822/435.867
Cubesat XI-IV 28 Apr 06:42:04 06:45:37 18° 86° (E) 06:49:19 437.490
AO-7 28 Apr 06:42:33 06:50:52 75° 295° (WNW) 06:59:10 29.400- 29.500
CUSAT 1 28 Apr 06:43:18 06:48:26 19° 280° (W) 06:53:33 437.405
Cosmos 2491 28 Apr 06:46:16 06:48:19 11° 25° (NNE) 06:50:40 435.465 / 435.565
MOZHAYETS 4 28 Apr 06:49:33 06:52:11 14° 275° (W) 06:54:38
CUBESAT XI-V 28 Apr 06:53:51 06:58:30 89° 76° (ENE) 07:03:08 437.345
AIST 2 28 Apr 06:59:55 07:03:24 23° 340° (NNW) 07:06:50 435.215
GONETS M04 28 Apr 07:00:13 07:05:10 16° 291° (WNW) 07:09:40
